Home > Weather > Rockford > Past weeks

Flag for U.S.A. Weather for the Past 2 Weeks in Rockford, Illinois, U.S.A.

Now
14 °F

Passing clouds.


Feels Like: 0 °F
Forecast: 7 / 15 °F
Wind: 13 mph from Northwest

Location: Greater Rockford Airport

Current Time: Feb 9, 2016 at 8:52:41 PM

Latest Report: Feb 9, 2016 at 7:54 PM


Visibility: 10 mi

Pressure: 30.04 "Hg

Humidity: 61%

Dew point: 3 °F

Location of RockfordLocation

Historic Weather in Rockford — Graph

°F

Rockford Temperature Yesterday

Maximum temperature yesterday: 34 °F (at 1:54 AM)
Minimum temperature yesterday: 19 °F (at 11:54 PM)
Average temperature yesterday: 26 °F

High & Low Weather Summary for the Past Weeks

 TemperatureHumidityPressure
High45 °F (Feb 7, 1:54 PM)100% (Feb 1, 8:54 AM)30.43 "Hg (Feb 1, 8:54 AM)
Low13 °F (Feb 9, 7:54 AM)55% (Feb 4, 10:54 AM)29.49 "Hg (Feb 3, 12:54 AM)
Average31 °F77%29.93 "Hg
* Reported Jan 25 6:54 PM — Feb 9 6:54 PM, Rockford, Weather by CustomWeather, © 2016

Note: Actual official high and low records may vary slightly from our data, if they occured in-between our weather recording intervals... More about our weather records

Advertising

Rockford Weather History for the Previous 24 Hours

 ConditionsComfort  
Time TempWeatherWind HumidityBarometerVisibility
6:54 PM
Tue, Feb 9
15 °FLight snow. Overcast.10 mph67%30.04 "Hg8 mi
5:54 PM15 °FLight snow. Mostly cloudy.10 mph70%30.02 "Hg10 mi
4:54 PM15 °FMore clouds than sun.10 mph67%30.00 "Hg10 mi
3:54 PM16 °FLight snow. Cloudy.15 mph67%29.97 "Hg7 mi
2:54 PM18 °FLight snow. Overcast.15 mph59%29.94 "Hg9 mi
1:54 PM17 °FLight snow. Overcast.18 mph62%29.93 "Hg9 mi
12:54 PM17 °FOvercast.15 mph62%29.93 "Hg10 mi
11:54 AM16 °FOvercast.16 mph65%29.93 "Hg10 mi
10:54 AM15 °FLight snow. Mostly cloudy.17 mph70%29.94 "Hg7 mi
9:54 AM14 °FLight snow. Mostly cloudy.17 mph73%29.93 "Hg3 mi
8:54 AM13 °FLight snow. Overcast.13 mph77%29.93 "Hg2 mi
7:54 AM13 °FLight snow. Overcast.13 mph77%29.91 "Hg3 mi
6:54 AM14 °FLight snow. Overcast.14 mph73%29.89 "Hg3 mi
5:54 AM14 °FLight snow. Overcast.15 mph77%29.88 "Hg3 mi
4:56 AM15 °FLight snow. Overcast.16 mph80%29.82 "Hg2 mi
3:54 AM16 °FLight snow. Overcast.12 mph80%29.83 "Hg2 mi
2:54 AM17 °FLight snow. Overcast.15 mph76%29.83 "Hg2 mi
1:54 AM18 °FLight snow. Mostly cloudy.13 mph71%29.83 "Hg8 mi
12:54 AM18 °FLight snow. Mostly cloudy.14 mph74%29.83 "Hg7 mi
11:54 PM
Mon, Feb 8
19 °FMostly cloudy.15 mph71%29.83 "Hg10 mi
10:54 PM20 °FOvercast.14 mph68%29.83 "Hg10 mi
9:54 PM22 °FOvercast.16 mph62%29.83 "Hg10 mi
8:54 PM22 °FOvercast.14 mph66%29.83 "Hg10 mi
Weather by CustomWeather, © 2016

See weather overviewHow to use our weather pages